Location: Banios
(43.0451°N, 0.2335°E)
Time: 13:46:51
(UTC+00:00)

H-2A R/B - Pass Details

Date: 25 January 2021
Orbit: 504 x 534 km, 97.3° (Epoch: 25 February)

Event Time Altitude Azimuth Distance (km) Brightness Sun altitude
Rises 05:51:07 0° 7° (N) 2,634 6.3 -16.4°
Reaches altitude 10° 05:53:14 10° 3° (N) 1,747 5.3 -16.0°
Maximum altitude 05:56:55 54° 285° (WNW) 634 2.7 -15.4°
Drops below altitude 10° 06:00:36 10° 208° (SSW) 1,750 5.2 -14.7°
Sets 06:02:43 0° 204° (SSW) 2,638 6.2 -14.3°
